Post more comments
Want a gift card for being active Forum member? Post comments and win $25 gift card every week.
Rules:
PoemHunter.com will be giving away Amazon.com gift cards (worth $75 in total) every week to first three members ($25 each) who participate most in our forum discussions. You just have to post comments on forum pages, poet pages or poem pages anywhere inside PoemHunter.com
Comments posted needs to be in different pages. Posting more than 1 comment on the same page will only be counted once.
Members can not post comments without being logged in.
PoemHunter.com has the right to cancel or edit this contest.
PoemHunter.com has a right to disqualify or ban member(s) without providing any type of reason, belief or proof in regards to any type of illegal activity or fraud.

Edna St. Vincent Millay

(22 February 1892 – 19 October 1950 / Rockland / Maine / United States)

Stats

» Click to list general statistics » OR, select a date :

General Statistics

Visitors of the poet

Number of visitors of the poet’s mainpage in PoemHunter.Com

Attention : Numbers in this table does not indicate the total hits of poems of the poet, but indicates the hits of the poet’s main page.

Date Hits
07/11/2014 Friday 982
85%
07/10/2014 Thursday 952
82%
07/09/2014 Wednesday 787
68%
07/08/2014 Tuesday 805
70%
07/07/2014 Monday 1032
89%
07/06/2014 Sunday 1149
100%
07/05/2014 Saturday 901
78%
07/04/2014 Friday 727
63%
07/03/2014 Thursday 772
67%
07/02/2014 Wednesday 707
61%
07/01/2014 Tuesday 783
68%
06/30/2014 Monday 714
62%
06/29/2014 Sunday 616
53%
06/28/2014 Saturday 997
86%
06/27/2014 Friday 957
83%
06/26/2014 Thursday 873
75%
06/25/2014 Wednesday 825
71%
06/24/2014 Tuesday 799
69%
06/23/2014 Monday 965
83%
06/22/2014 Sunday 745
64%

Reader rating & num.of MyPoemList’s

Click the captions of columns to change the order.

# Poem Title Submit Date Reader Rating Num.of MyPoemList’s
Rating Num.R.
1 [Four Sonnets (1922)] 01/01/2004 5.2 106 30
2 A Visit To The Asylum 01/13/2003 6.0 95 56
3 Afternoon on a Hill 01/04/2003 6.6 118 71
4 Alms 01/13/2003 5.7 92 26
5 An Ancient Gesture 01/13/2003 6.0 107 49
6 And do you think that love itself 01/13/2003 6.0 113 62
7 And you as well must die, belovèd dust 01/01/2004 6.0 76 51
8 Apostrophe To Man 01/13/2003 5.8 118 32
9 Ashes Of Life 01/13/2003 6.0 87 65
10 Assault 01/13/2003 5.6 123 20
11 Autumn Daybreak 01/13/2003 5.6 130 43
12 Being Young And Green 01/13/2003 5.5 84 33
13 Blight 01/13/2003 5.9 96 22
14 Bluebeard 01/01/2004 5.5 80 42
15 Burial 01/13/2003 5.3 89 30
16 Chorus 01/13/2003 5.8 82 22
17 City Trees 01/13/2003 5.7 131 55
18 Conscientious Objector 01/13/2003 5.4 175 70
19 Counting-Out Rhyme 01/01/2004 6.1 98 21
20 Daphne 01/13/2003 5.7 93 33
21 Departure 01/13/2003 5.5 87 38
22 Dirge 01/13/2003 5.6 68 10
23 Dirge Without Music 01/13/2003 6.5 99 62
24 Doubt No More That Oberon 01/13/2003 5.6 66 12
25 Ebb 01/13/2003 5.5 81 25
26 Eel-Grass 01/13/2003 6.0 33 10
27 Elegy 01/13/2003 5.3 42 8
28 Elegy Before Death 01/13/2003 6.1 31 13
29 Epitaph 01/13/2003 6.1 38 16
30 Euclid Alone 01/01/2004 5.6 45 16
31 Exiled 01/13/2003 6.5 44 21
32 Feast 01/13/2003 6.0 50 14
33 First Fig 01/13/2003 7.5 73 91
34 Fontaine, Je Ne Boirai Pas De Ton Eau! 01/13/2003 5.5 31 8
35 God's World 01/04/2003 6.1 69 38
36 Grown-up 01/01/2004 6.2 25 31
37 Here Is A Wound That Never Will Heal, I Know 01/13/2003 6.0 56 56
38 Humoresque 01/01/2004 5.6 30 16
39 I do but ask that you be always fair 01/01/2004 5.5 42 29
40 I Dreamed I Moved Among The Elysian Fields 01/13/2003 5.9 67 25
41 I Know 100 Ways to Die 07/07/2003 7.8 4 28
42 I Know I Am But Summer To Your Heart 01/13/2003 6.5 40 47
43 I Know The Face Of Falsehood And Her Tongue 01/13/2003 5.6 44 7
44 I Shall Go Back 01/01/2004 5.5 39 25
45 I, Being Born a Woman and Distressed 01/01/2004 6.6 32 53
46 If I Should Learn, In Some Quite Casual Way 01/01/2004 6.4 40 36
47 If Still Your Orchards Bear 01/13/2003 5.8 32 7
48 Indifference 01/13/2003 5.8 33 11
49 Inland 01/13/2003 5.5 36 7
50 Intention To Escape From Him 01/13/2003 6.3 34 21
51 Interim 01/13/2003 6.1 36 14
52 Invocation To The Muses 01/13/2003 5.6 36 4
53 Journey 01/13/2003 6.2 26 17
54 Justice Denied In Massachusetts 01/13/2003 5.8 33 8
55 Kin To Sorrow 01/13/2003 5.5 34 20
56 Lament 01/13/2003 6.4 39 25
57 Lines for a Grave-Stone 01/01/2004 6.1 37 7
58 Lines Written In Recapitulation 01/13/2003 6.2 49 4
59 Love Is Not All 01/13/2003 7.5 78 167
60 Low-Tide 01/13/2003 4.8 45 14
61 Make Bright The Arrows 01/13/2003 5.7 38 4
62 Mariposa 01/13/2003 6.6 49 12
63 Memorial To D.C. 01/13/2003 5.8 31 2
64 Menses 01/13/2003 5.5 32 6
65 Midnight Oil 01/13/2003 5.9 35 10
66 Mist In The Valley 01/13/2003 5.4 33 14
67 Modern Declaration 01/13/2003 5.6 34 9
68 My Most Distinguished Guest And Learned Friend 01/13/2003 5.4 35 9
69 Night Is My Sister, And How Deep In Love 01/13/2003 5.7 35 25
70 No rose that in a garden ever grew 01/01/2004 5.5 36 12
71 Not Even My Pride Shall Suffer Much 01/13/2003 5.7 37 9
72 Not In A Silver Casket Cool With Pearls 01/13/2003 5.9 38 20
73 Ode To Silence 01/13/2003 5.9 33 15
74 Oh, my belovèd, have you thought of this 01/01/2004 6.0 36 12
75 Oh, Oh, You Will Be Sorry 01/13/2003 6.4 38 33
76 Only until this cigarette is ended 01/01/2004 5.5 36 44
77 Passer Mortuus Est 01/13/2003 5.8 46 9
78 Pastoral 01/13/2003 5.1 35 5
79 Pity Me Not Because The Light Of Day 01/13/2003 6.3 38 31
80 Portrait By A Neighbour 01/13/2003 5.9 35 8
81 Prayer To Persephone 01/13/2003 5.5 33 18
82 Recuerdo 01/01/2004 6.5 43 19
83 Renascence 01/04/2003 6.9 30 58
84 Rosemary 01/13/2003 5.5 44 6
85 Scrub 01/13/2003 5.7 42 4
86 Second Fig 01/13/2003 6.0 47 27
87 Song Of A Second April 01/13/2003 5.9 46 8
88 Sonnet (Women Have Loved Before As I Love Now) 01/13/2003 5.9 44 18
89 Sonnet 01: Thou Art Not Lovelier Than Lilacs,—No 01/13/2003 5.7 44 15
90 Sonnet 02: Time Does Not Bring Relief; You All Have Lied 01/13/2003 6.5 66 64
91 Sonnet 03: Mindful Of You The Sodden Earth In Spring 01/13/2003 5.4 42 5
92 Sonnet 04: Not In This Chamber Only At My Birth 01/13/2003 5.5 43 4
93 Sonnet 05: If I Should Learn, In Some Quite Casual Way 01/13/2003 5.9 48 18
94 Sonnet 06: Bluebeard 01/13/2003 6.1 49 7
95 Sonnet I: Thou art not lovelier than lilacs 01/01/2004 5.6 43 10
96 Sonnet II: Time does not bring relief 01/01/2004 6.0 47 24
97 Sonnet III: Mindful of you the sodden earth 01/01/2004 5.6 42 5
98 Sonnet IV: Not in this chamber 01/01/2004 5.5 42 3
99 Sonnet V: If I should learn 01/01/2004 5.3 48 4
100 Sonnet VI: This door you might not open 01/01/2004 5.9 49 12
101 Sonnets (1923) 01/01/2004 5.3 49 6
102 Sonnets 01: We Talk Of Taxes, And I Call You Friend 01/13/2003 5.4 48 9
103 Sonnets 02: Into The Golden Vessel Of Great Song 01/13/2003 5.3 55 3
104 Sonnets 03: Not With Libations, But With Shouts And Laughter 01/13/2003 5.8 56 6
105 Sonnets 04: Only Until This Cigarette Is Ended 01/13/2003 5.8 34 11
106 Sonnets 05: Once More Into My Arid Days Like Dew 01/13/2003 5.7 32 8
107 Sonnets 06: No Rose That In A Garden Ever Grew 01/13/2003 5.6 42 7
108 Sonnets 07: When I Too Long Have Looked Upon Your Face 01/13/2003 5.9 44 22
109 Sonnets 08: And You As Well Must Die, Beloved Dust 01/13/2003 5.4 49 6
110 Sonnets 09: Let You Not Say Of Me When I Am Old 01/13/2003 5.6 51 9
111 Sonnets 10: Oh, My Beloved, Have You Thought Of This 01/13/2003 5.8 44 6
112 Sonnets 11: As To Some Lovely Temple, Tenantless 01/13/2003 5.7 44 3
113 Sonnets 12: Cherish You Then The Hope I Shall Forget 01/13/2003 5.5 61 3
114 Sonnets From An Ungrafted Tree 01/13/2003 5.7 46 4
115 Sorrow 01/13/2003 5.7 53 26
116 Souvenir 01/13/2003 5.6 46 11
117 Spring 01/13/2003 6.0 44 20
118 Sweet Love, Sweet Thorn, When Lightly To My Heart 01/13/2003 5.6 45 16
119 Tavern 01/13/2003 5.6 48 7
120 The Ballad Of The Harp-Weaver 01/13/2003 5.9 59 27
121 The Bean-Stalk 01/13/2003 5.6 58 5
122 The Betrothal 01/01/2004 5.6 37 13
123 The Blue Flag in the Bog 01/01/2004 5.9 34 4
124 The Blue-Flag In The Bog 01/13/2003 5.3 62 2
125 The Concert 01/13/2003 5.5 71 7
126 The Curse 01/13/2003 5.9 68 12
127 The Death Of Autumn 01/13/2003 5.9 59 9
128 The Dream 01/13/2003 5.8 62 25
129 The Fawn 01/13/2003 5.8 66 5
130 The Fledgling 01/13/2003 5.4 49 2
131 The Goose-Girl 01/13/2003 5.8 69 9
132 The Leaf And The Tree 01/13/2003 5.8 59 15
133 The Little Ghost 01/13/2003 6.1 38 16
134 The Little Hill 01/13/2003 5.8 54 7
135 The Penitent 01/13/2003 5.6 30 10
136 The Philosopher 01/13/2003 5.6 44 22
137 The Plaid Dress 01/13/2003 5.8 46 10
138 The Poet And His Book 01/13/2003 6.2 40 10
139 The Return From Town 01/13/2003 5.5 47 6
140 The Shroud 01/13/2003 5.5 57 4
141 The Singing-Woman From The Wood's Edge 01/13/2003 5.9 45 7
142 The Snow Storm 01/13/2003 5.8 74 7
143 The Spring And The Fall 01/13/2003 8.0 110 62
144 The Suicide 01/13/2003 5.5 58 18
145 The True Encounter 01/13/2003 5.9 54 6
146 The Unexplorer 01/13/2003 6.0 49 7
147 The Wood Road 01/13/2003 5.8 44 5
148 Think Not, Not For A Moment Let Your Mind 01/13/2003 5.7 54 14
149 Three Songs Of Shattering 01/13/2003 5.9 38 7
150 Thursday 01/01/2004 5.3 76 11
151 To A Poet That Died Young 01/13/2003 5.8 43 7
152 To a Young Poet 01/01/2004 5.9 61 9
153 To Kathleen 01/01/2004 5.5 57 4
154 To The Not Impossible Him 01/13/2003 5.3 52 14
155 To Those Without Pity 01/13/2003 5.1 39 10
156 Travel 01/13/2003 6.0 40 14
157 Two Sonnets In Memory 01/13/2003 5.9 31 5
158 Underground System 01/13/2003 5.8 34 3
159 We Talk of Taxes... 01/01/2004 6.2 28 4
160 Weeds 01/13/2003 8.0 1 8
161 What Lips My Lips Have Kissed, And Where, And Why (Sonnet XLIII) 01/13/2003 7.8 117 362
162 When I Too Long Have Looked Upon Your Face 01/01/2004 6.2 36 30
163 When the Year grows Old 01/04/2003 5.7 38 16
164 When We Are Old And These Rejoicing Veins 01/13/2003 5.7 35 14
165 Whereas At Morning In A Jeweled Crown 01/13/2003 5.4 42 6
166 Wild Swans 01/13/2003 5.9 32 14
167 Witch-Wife 01/13/2003 5.4 39 23
168 Wraith 01/13/2003 5.6 29 12
[Hata Bildir]